Weather History for Yuma MCAS, AZ

Change the Weather History Date:

Tuesday, March 27, 2012

  Actual Average Record
Temperature  
Mean Temperature 66 °F 69 °F  
Max Temperature 80 °F 82 °F 100 °F (1986)
Min Temperature 52 °F 56 °F 38 °F (1936)
Degree Days  
Heating Degree Days 0 1  
Month to date heating degree days 59 47  
Since 1 July heating degree days 688 670  
Cooling Degree Days 1 5  
Month to date cooling degree days 57 97  
Year to date cooling degree days 70 133  
Growing Degree Days 16 (Base 50)    
Moisture  
Dew Point 34 °F    
Average Humidity 34    
Maximum Humidity 54    
Minimum Humidity 14    
Precipitation  
Precipitation 0.00 in 0.01 in 0.31 in (1925)
Month to date precipitation 0.01 0.30  
Year to date precipitation 0.04 1.06  
Sea Level Pressure  
Sea Level Pressure 29.96 in    
Wind  
Wind Speed 2 mph (West)    
Max Wind Speed 10 mph    
Max Gust Speed 13 mph    
Visibility 10 miles    
Events      
T = Trace of Precipitation, MM = Missing Value Source: NWS Daily Summary

Daily Weather History Graph

Daily Weather History Graph

Search for Another Location

Airport:

Trip Planner

Search our weather history database for the weather conditions in past years. The results will help you decide how hot, cold, wet, or windy it might be!

Date:

Astronomy

Mar. 27, 2012 Rise Set
Actual Time 6:32 AM MST 6:55 PM MST
Civil Twilight 6:07 AM MST 7:20 PM MST
Nautical Twilight 5:38 AM MST 7:49 PM MST
Astronomical Twilight 5:09 AM MST 8:18 PM MST
Moon 9:22 AM MST (3/27) 11:45 PM MST (3/27)
Length of Visible Light 13h 12m
Length of Day
12h 23m
Waxing Crescent, 23% of the Moon is Illuminated
Mar 27
Waxing Crescent
Mar 30
First Quarter
Apr 6
Full
Apr 13
Last Quarter
Apr 21
New

Hourly Weather History & Observations

Time (MST) Temp. Dew Point Humidity Pressure Visibility Wind Dir Wind Speed Gust Speed Precip Events Conditions
12:55 AM 57.0 °F 37.0 °F 47% 29.99 in 10.0 mi SSW 3.5 mph - N/A   Clear
1:55 AM 57.9 °F 37.0 °F 46% 29.99 in 10.0 mi Calm Calm - N/A   Clear
2:55 AM 54.0 °F 35.1 °F 49% 29.98 in 10.0 mi Calm Calm - N/A   Clear
3:55 AM 55.0 °F 34.0 °F 45% 29.96 in 10.0 mi Calm Calm - N/A   Clear
4:55 AM 55.0 °F 34.0 °F 45% 29.97 in 10.0 mi Calm Calm - N/A   Clear
5:55 AM 52.0 °F 35.1 °F 53% 29.98 in 4.0 mi Calm Calm - N/A   Clear
6:55 AM 54.0 °F 35.1 °F 49% 29.99 in 10.0 mi Calm Calm - N/A   Clear
7:55 AM 59.0 °F 35.1 °F 41% 30.01 in 10.0 mi East 3.5 mph - N/A   Clear
8:55 AM 64.0 °F 35.1 °F 34% 30.01 in 10.0 mi Calm Calm - N/A   Clear
9:55 AM 69.1 °F 35.1 °F 29% 30.03 in 10.0 mi Calm Calm - N/A   Clear
10:55 AM 72.0 °F 35.1 °F 26% 30.03 in 10.0 mi Variable 4.6 mph - N/A   Clear
11:55 AM 75.0 °F 36.0 °F 24% 30.02 in 10.0 mi Calm Calm - N/A   Clear
12:55 PM 77.0 °F 34.0 °F 21% 29.99 in 10.0 mi WNW 5.8 mph - N/A   Partly Cloudy
1:55 PM 77.0 °F 32.0 °F 19% 29.97 in 10.0 mi WSW 5.8 mph - N/A   Partly Cloudy
2:55 PM 78.1 °F 28.9 °F 17% 29.94 in 10.0 mi WSW 3.5 mph - N/A   Partly Cloudy
3:55 PM 80.1 °F 27.0 °F 14% 29.92 in 10.0 mi Calm Calm - N/A   Clear
4:55 PM 79.0 °F 28.9 °F 16% 29.91 in 10.0 mi Variable 6.9 mph - N/A   Clear
5:55 PM 78.1 °F 32.0 °F 19% 29.90 in 10.0 mi West 5.8 mph - N/A   Clear
6:55 PM 75.0 °F 33.1 °F 22% 29.90 in 10.0 mi WNW 4.6 mph - N/A   Clear
7:55 PM 73.0 °F 35.1 °F 25% 29.91 in 10.0 mi Calm Calm - N/A   Clear
8:55 PM 72.0 °F 36.0 °F 27% 29.92 in 10.0 mi Calm Calm - N/A   Clear
9:55 PM 66.9 °F 35.1 °F 31% 29.93 in 9.0 mi Calm Calm - N/A   Clear
10:55 PM 66.0 °F 36.0 °F 33% 29.93 in 10.0 mi Calm Calm - N/A   Clear
11:55 PM 62.1 °F 37.9 °F 41% 29.94 in 10.0 mi Calm Calm - N/A   Clear